Content
SEND FEEDBACK

Daily
Averages
Monthly
Summary
United States of America

DEAL, NEW JERSEY


Home > North America > United States > New Jersey
Elevation: 2 feet     Latitude: 40 16N     Longitude: 074 00W

WEATHER
 
SELECT A DAY
Number of Records: 458,353;   Date Range: 1/1/95 - 12/19/14
 
SHARE

PRINT THIS DATA

[ ← Previous Day ]
WEATHER ALMANAC - JANUARY 31, 2013
[ Next Day → ]
[ °C ]   °F
Weather ElementAverageHighLow
Temperature39.3 °F60.8 °F (1:55 am) (12:35 am)
Dewpoint15.5 °F51.8 °F (1:55 am)-5.8 °F (10:55 pm)
Humidity37.6 %77 % (3:55 am)17 % (3:35 pm)
Barometer29.47 in29.83 in (11:35 pm)29.13 in (3:35 am)
Wind Speed20.5 mph32.2 mph (1:35 am)
Wind Gust51.8 mph (2:35 am)
Weather ElementAverage
Visibility9.5 mi
Wind DirectionWSW (254.6 °)

Weather ElementTotal
Precipitation0.89 in
Heating Degree Days34.6 (Base 65)
Averaged from 70 records on January 31, 2013
WEATHER CONDITIONS BREAKOUT
WIND DIRECTION BREAKOUT
WEATHER BY HOUR - JANUARY 31, 2013
[ °C ]   °F
Local TimeTemperatureDewpointHumidityBarometerVisibilityWind DirectionWind SpeedGust SpeedPrecipitationEventsConditions
12:35 AM0.0 °F0.0 °F29.36 in9.0 miSSW (200°)29.9 mph47.2 mph0.01 inOvercast
12:55 AM0.0 °F0.0 °F29.34 in10.0 miSSW (200°)26.5 mph49.5 mph0.01 inOvercast
1:15 AM0.0 °F0.0 °F29.31 in10.0 miSouth (190°)25.3 mph46.0 mphOvercast
1:35 AM0.0 °F0.0 °F29.29 in7.0 miSSW (200°)32.2 mph47.2 mphOvercast
1:55 AM60.8 °F51.8 °F72 %29.26 in10.0 miSouth (190°)24.2 mph40.3 mph0.01 inOvercast
2:15 AM60.8 °F50.0 °F68 %29.24 in7.0 miSouth (180°)28.8 mph40.3 mph0.02 inOvercast
2:35 AM0.0 °F0.0 °F29.20 in7.0 miSouth (180°)32.2 mph51.8 mph0.03 inOvercast
2:55 AM60.8 °F51.8 °F72 %29.19 in8.0 miSouth (180°)23.0 mph41.4 mph0.04 inOvercast
3:15 AM59.0 °F50.0 °F72 %29.15 in6.0 miSouth (180°)23.0 mph33.4 mph0.02 inOvercast
3:35 AM59.0 °F50.0 °F72 %29.13 in4.0 miSouth (190°)28.8 mph43.7 mph0.09 inOvercast
3:55 AM59.0 °F51.8 °F77 %29.13 in4.0 miSSW (200°)19.6 mph46.0 mph0.24 inOvercast
4:15 AM60.8 °F51.8 °F72 %29.16 in5.0 miSSW (210°)24.2 mph46.0 mph0.05 inOvercast
4:35 AM60.8 °F51.8 °F72 %29.17 in9.0 miSW (230°)12.7 mph36.8 mph0.06 inOvercast
4:55 AM60.8 °F51.8 °F72 %29.18 in9.0 miSW (230°)13.8 mph24.2 mph0.13 inOvercast
5:15 AM57.2 °F48.2 °F72 %29.16 in10.0 miSW (220°)13.8 mph21.9 mph0.04 inOvercast
5:35 AM57.2 °F46.4 °F67 %29.14 in10.0 miSSW (200°)13.8 mph20.7 mph0.06 inOvercast
5:55 AM57.2 °F46.4 °F67 %29.13 in10.0 miSSW (200°)16.1 mph28.8 mph0.06 inOvercast
6:15 AM57.2 °F44.6 °F63 %29.13 in10.0 miSW (220°)18.4 mph32.2 mphMostly Cloudy
6:35 AM57.2 °F44.6 °F63 %29.14 in10.0 miSW (220°)18.4 mph31.1 mphMostly Cloudy
6:55 AM53.6 °F39.2 °F58 %29.21 in9.0 miWest (270°)24.2 mph44.9 mph0.02 inMostly Cloudy
7:15 AM48.2 °F33.8 °F58 %29.24 in10.0 miWest (280°)28.8 mph36.8 mphOvercast
7:35 AM46.4 °F32.0 °F57 %29.26 in10.0 miWest (280°)17.3 mph32.2 mphMostly Cloudy
7:55 AM46.4 °F30.2 °F53 %29.28 in10.0 miWest (280°)13.8 mph21.9 mphOvercast
8:15 AM48.2 °F26.6 °F43 %29.30 in10.0 miWest (280°)24.2 mph32.2 mphOvercast
8:35 AM48.2 °F21.2 °F34 %29.32 in10.0 miWest (280°)21.9 mph38.0 mphOvercast
8:55 AM46.4 °F17.6 °F32 %29.35 in10.0 miWest (270°)21.9 mph38.0 mphMostly Cloudy
9:15 AM46.4 °F21.2 °F37 %29.37 in10.0 miWNW (290°)19.6 mph31.1 mphMostly Cloudy
9:35 AM46.4 °F17.6 °F32 %29.39 in10.0 miWest (280°)23.0 mph36.8 mphOvercast
9:55 AM44.6 °F15.8 °F31 %29.41 in10.0 miWest (280°)23.0 mph34.5 mphMostly Cloudy
10:15 AM44.6 °F12.2 °F27 %29.42 in10.0 miWest (270°)21.9 mph38.0 mphPartly Cloudy
10:35 AM0.0 °F0.0 °F29.43 in10.0 miWest (280°)32.2 mph42.6 mphPartly Cloudy
10:55 AM44.6 °F17.6 °F34 %29.45 in10.0 miWest (270°)18.4 mph41.4 mphPartly Cloudy
11:15 AM0.0 °F0.0 °F29.45 in10.0 miWest (280°)20.7 mph38.0 mphMostly Cloudy
11:35 AM44.6 °F12.2 °F27 %29.47 in10.0 miWest (280°)27.6 mph38.0 mphMostly Cloudy
11:55 AM44.6 °F10.4 °F25 %29.47 in10.0 miWest (280°)20.7 mph33.4 mphMostly Cloudy
12:15 PM44.6 °F12.2 °F27 %29.48 in10.0 miWest (270°)18.4 mph34.5 mphMostly Cloudy
12:35 PM0.0 °F0.0 °F29.48 in10.0 miWest (280°)25.3 mph36.8 mphScattered Clouds
12:55 PM42.8 °F8.6 °F25 %29.49 in10.0 miWest (280°)27.6 mph38.0 mphScattered Clouds
1:15 PM46.4 °F10.4 °F23 %29.49 in10.0 miWest (260°)24.2 mph34.5 mphMostly Cloudy
1:35 PM44.6 °F10.4 °F25 %29.49 in10.0 miWest (270°)20.7 mph31.1 mphMostly Cloudy
1:55 PM44.6 °F10.4 °F25 %29.52 in10.0 miWest (280°)18.4 mph34.5 mphMostly Cloudy
2:15 PM44.6 °F12.2 °F27 %29.51 in10.0 miWest (270°)19.6 mph29.9 mphMostly Cloudy
2:35 PM44.6 °F8.6 °F23 %29.53 in10.0 miWest (260°)18.4 mph31.1 mphMostly Cloudy
2:55 PM44.6 °F5.0 °F20 %29.54 in10.0 miWNW (290°)23.0 mph33.4 mphScattered Clouds
3:15 PM44.6 °F3.2 °F18 %29.54 in10.0 miWest (260°)21.9 mph33.4 mphMostly Cloudy
3:35 PM44.6 °F1.4 °F17 %29.56 in10.0 miWest (260°)24.2 mph35.7 mphScattered Clouds
3:55 PM42.8 °F1.4 °F18 %29.57 in10.0 miWest (280°)21.9 mph35.7 mphMostly Cloudy
4:15 PM41.0 °F1.4 °F19 %29.60 in10.0 miWest (270°)17.3 mph34.5 mphPartly Cloudy
4:35 PM39.2 °F-0.4 °F19 %29.61 in10.0 miWest (270°)28.8 mph40.3 mphPartly Cloudy
4:55 PM39.2 °F-2.2 °F17 %29.63 in10.0 miWest (270°)17.3 mph36.8 mphPartly Cloudy
5:15 PM37.4 °F-0.4 °F20 %29.65 in10.0 miWest (280°)16.1 mph32.2 mphScattered Clouds
5:35 PM37.4 °F-2.2 °F19 %29.67 in10.0 miWest (280°)17.3 mph27.6 mphPartly Cloudy
5:55 PM35.6 °F-0.4 °F22 %29.69 in10.0 miWest (270°)17.3 mph26.5 mphMostly Cloudy
6:15 PM35.6 °F8.6 °F33 %29.70 in10.0 miWest (270°)21.9 mph32.2 mphPartly Cloudy
6:35 PM35.6 °F1.4 °F24 %29.72 in10.0 miWest (270°)15.0 mph21.9 mphClear
6:55 PM35.6 °F1.4 °F24 %29.73 in10.0 miWest (280°)15.0 mph23.0 mphScattered Clouds
7:15 PM35.6 °F3.2 °F26 %29.74 in10.0 miWest (280°)17.3 mph20.7 mphPartly Cloudy
7:35 PM33.8 °F5.0 °F30 %29.74 in10.0 miWest (280°)15.0 mphClear
7:55 PM33.8 °F6.8 °F32 %29.74 in10.0 miWest (270°)15.0 mph21.9 mphPartly Cloudy
8:15 PM33.8 °F6.8 °F32 %29.76 in10.0 miWest (260°)20.7 mph27.6 mphScattered Clouds
8:35 PM33.8 °F1.4 °F25 %29.76 in10.0 miWest (260°)17.3 mph33.4 mphScattered Clouds
9:15 PM32.0 °F1.4 °F27 %29.78 in10.0 miWest (280°)17.3 mph23.0 mphPartly Cloudy
9:35 PM32.0 °F1.4 °F27 %29.79 in10.0 miWest (280°)15.0 mph26.5 mphScattered Clouds
9:55 PM32.0 °F-0.4 °F25 %29.79 in10.0 miWest (280°)17.3 mph29.9 mphScattered Clouds
10:15 PM32.0 °F-2.2 °F23 %29.80 in10.0 miWNW (290°)16.1 mph26.5 mphOvercast
10:35 PM30.2 °F-2.2 °F25 %29.81 in10.0 miWest (270°)16.1 mph32.2 mphOvercast
10:55 PM30.2 °F-5.8 °F21 %29.82 in10.0 miWest (270°)17.3 mph28.8 mphScattered Clouds
11:15 PM30.2 °F-5.8 °F21 %29.82 in10.0 miWest (280°)15.0 mph26.5 mphClear
11:35 PM30.2 °F-5.8 °F21 %29.83 in10.0 miWest (270°)15.0 mph26.5 mphClear
11:55 PM28.4 °F-5.8 °F23 %29.83 in10.0 miWest (260°)10.4 mph19.6 mphClear
Hourly data recorded from KBLM, located miles away from Deal, New Jersey







STORIES FROM OUR PARTNERS